Regional Weather Roundup
Issued by NWS

Home | Current Version | Previous Version | Graphics & Text | Print | Product List | Glossary Off
Versions: 1 2 3 4 5 6 7 8 9 10 11 12 13 14 15 16 17 18 19 20 21 22 23 24 25 26 27 28 29 30 31 32 33 34 35 36 37 38 39 40 41 42 43 44 45 46 47 48 49 50

000
ASUS43 KMPX 152001
RWRMN
WEATHER ROUNDUP FOR MINNESOTA
NATIONAL WEATHER SERVICE TWIN CITIES/CHANHASSEN MN
300 PM CDT TUE APR 15 2014


NOTE: "FAIR" INDICATES FEW OR NO CLOUDS BELOW 12,000 FEET WITH NO
SIGNIFICANT WEATHER AND/OR OBSTRUCTIONS TO VISIBILITY. N/A MEANS
CURRENT SKY AND/OR WEATHER CONDITIONS ARE NOT AVAILABLE.

MNZ060>063-068>070-152100-
   Twin Cities Metro

CITY           SKY/WX    TMP DP  RH WIND       PRES   REMARKS
TWIN CITIES    MOSUNNY   34   3  27 W6        30.10F WCI  29
ST PAUL        SUNNY     34   1  24 VRB3      30.11F
CRYSTAL        SUNNY     34   1  24 NE3       30.08F
EDEN PRAIRIE   SUNNY     35   4  27 NW7       30.08F WCI  29
LAKEVILLE      SUNNY     34   5  29 CALM      30.09S
SOUTH ST PAUL  SUNNY     37   0  21 W6        30.10S
LAKE ELMO      FAIR      32   5  32 SW6       30.10S WCI  26
$$
MNZ001>005-007-008-013>017-022>024-027-028-152100-
   Northwest Minnesota

CITY           SKY/WX    TMP DP  RH WIND       PRES   REMARKS
BEMIDJI        SUNNY     28  -2  26 E7        30.02S WCI  21
HALLOCK        CLOUDY    27   9  46 CALM      30.06F
ROSEAU         SUNNY     27   3  36 CALM      30.06F
WARROAD        SUNNY     23   3  42 E7        30.07F WCI  15
THIEF RVR FALL SUNNY     27   3  36 CALM      30.05F
CROOKSTON      SUNNY     28   9  43 CALM      30.06F
FOSSTON        SUNNY     34  18  51 NE5       30.03F WCI  30
DETROIT LAKES  SUNNY     30   5  34 S6        30.02F WCI  24
MOORHEAD       MOSUNNY   30   0  27 SE8       30.05F WCI  23
PARK RAPIDS    SUNNY     30  -4  23 CALM      30.01F
$$
MNZ006-009>011-018-025>026-152100-
   North Central Minnesota

CITY           SKY/WX    TMP DP  RH WIND       PRES   REMARKS
BAUDETTE       SUNNY     25   1  35 CALM      30.07F
FLAG ISLAND    SUNNY     18   3  53 S9        30.07F WCI   6
INTL FALLS     SUNNY     27   1  32 N8        30.05F WCI  19
WASKISH        SUNNY     27   3  36 W6        30.06F WCI  20
BIG FORK       SUNNY     30  -2  24 W5        30.04F WCI  25
LONGVILLE      SUNNY     28  -6  22 CALM      30.03F
GRAND RAPIDS   SUNNY     27  -4  26 W5        30.03F WCI  21
CRANE LAKE     SUNNY     28   9  43 N6        30.06F WCI  22
ORR            SUNNY     27  -4  26 CALM      30.01F
COOK           SUNNY     27   0  31 W5        30.04S WCI  21
$$
MNZ012-019>021-037-152100-
   Northeast Minnesota

CITY           SKY/WX    TMP DP  RH WIND       PRES   REMARKS
DULUTH         MOSUNNY   28   3  34 W8        30.03F WCI  20
ELY            SUNNY     27   0  31 SW9       30.02S WCI  17
HIBBING        SUNNY     28   0  29 VRB3      30.03F
EVELETH        SUNNY     30   1  29 NW6       30.03F WCI  24
DULUTH HARBOR  SUNNY     30   1  29 CALM      30.09F
TWO HARBORS    SUNNY     28   3  34 N3        30.02F
SILVER BAY     SUNNY     28  12  50 S12G18    30.01F WCI  18
GRAND MARAIS     N/A     32  -1  24 VRB3      30.04F
G MARAIS ARPRT MOSUNNY   25  -6  26 W12G17    29.97F WCI  14
$$
MNZ029>031-032-039>041-046>048-054>057-064-152100-
   West Central Minnesota

CITY           SKY/WX    TMP DP  RH WIND       PRES   REMARKS
FERGUS FALLS   MOSUNNY   30  -2  24 E5        30.01F WCI  25
WHEATON        MOSUNNY   37  14  38 E14       30.03F
MORRIS         MOSUNNY   36   7  30 SE8       30.02F
ALEXANDRIA     PTSUNNY   31   4  31 SW7       30.03F WCI  24
ELBOW LAKE     FAIR      31   1  27 SE6       30.03F WCI  26
WADENA         SUNNY     28   3  34 E3        30.02F
GLENWOOD       SUNNY     34   0  23 SE6       30.03F WCI  29
APPLETON       PTSUNNY   37   7  28 SE7       30.03F
BENSON         CLOUDY    34   5  29 SW7       30.04F WCI  28
ORTONVILLE     MOSUNNY   36   9  32 SE12      30.01F
MADISON        MOSUNNY   39  10  30 SE10      30.01F
WILLMAR        FAIR      34   0  23 CALM      30.06F
$$
MNZ033>034-036-042>043-049>051-058-059-152100-
   Central Minnesota

CITY           SKY/WX    TMP DP  RH WIND       PRES   REMARKS
ST CLOUD       SUNNY     33   0  24 VRB3      30.06F
SAUK CENTRE    FAIR      31   4  31 SW7       30.05F WCI  25
PAYNESVILLE    SUNNY     31   4  31 SE6       30.05F WCI  26
AITKIN         SUNNY     32 -11  15 SW3       30.03F
PINE RIVER     SUNNY     30   3  31 S7        30.06F WCI  23
BRAINERD       SUNNY     33  -5  19 S3        30.05F
STAPLES        SUNNY     28   0  29 E5        30.03F WCI  23
LONG PRAIRIE   FAIR      30   5  34 E3        30.04F
LITTLE FALLS   SUNNY     30   0  27 CALM      30.05F
LITCHFIELD     SUNNY     34   3  27 CALM      30.06F
BUFFALO        SUNNY     32   5  31 S5        30.08F WCI  28
MAPLE LAKE     SUNNY     34   8  33 SW5       30.07F WCI  29
$$
MNZ037-044-045-052-053-152100-
   East Central Minnesota

CITY           SKY/WX    TMP DP  RH WIND       PRES   REMARKS
PRINCETON      SUNNY     34   3  27 NW9       30.08F WCI  26
MORA           MOSUNNY   32   3  29 SW8       30.08F WCI  25
CAMBRIDGE      SUNNY     34  12  40 SW5       30.06F WCI  30
RUSH CITY      SUNNY     31   4  31 W3        30.08F
MOOSE LAKE     SUNNY     30   0  27 NE3       30.04F
HINCKLEY       FAIR      32   0  25 NW7       30.07F WCI  26
CLOQUET        SUNNY     28  -6  22 W8        30.04F WCI  20
MCGREGOR       SUNNY     30   0  27 SW6       30.05F WCI  24
$$
MNZ071>073-080-081-089-090-097-098-152100-
   Southwest Minnesota

CITY           SKY/WX    TMP DP  RH WIND       PRES   REMARKS
MONTEVIDEO     CLOUDY    39  10  30 S3        30.04F
GRANITE FALLS  PTSUNNY   36   7  29 SE9G16    30.06F
CANBY          CLOUDY    39  12  33 SE10      30.00F
MARSHALL       SUNNY     39  10  30 S10G17    30.01F
REDWOOD FALLS  SUNNY     36   8  31 SW9       30.06F
OLIVIA         MOSUNNY   34  10  37 SE7       30.05F WCI  28
PIPESTONE      PTSUNNY   39   9  28 S13G18    29.96F
WINDOM         MOSUNNY   37   5  25 S7        30.04F
WORTHINGTON    SUNNY     39   9  28 S12G20    30.03F
JACKSON        SUNNY     37   3  23 S6        30.05F
TRACY          MOSUNNY   38   9  29 SE6       30.02F
SLAYTON        MOSUNNY   39   8  27 SE8G18    30.00F
$$
MNZ065>067-074>077-082>085-091>093-152100-
   South Central Minnesota

CITY           SKY/WX    TMP DP  RH WIND       PRES   REMARKS
MANKATO        SUNNY     34   1  25 S8        30.09F WCI  27
NEW ULM        MOSUNNY   34   7  32 CALM      30.07F
ST JAMES       SUNNY     36   5  27 S3        30.09F
FAIRMONT       SUNNY     36   7  30 SW6       30.10F
GLENCOE        MOSUNNY   35   5  27 S6        30.07F WCI  30
FARIBAULT      SUNNY     37   3  23 SW6       30.09F
OWATONNA       SUNNY     34   9  35 SW3       30.08F
WASECA         SUNNY     36  10  35 W7        30.10F
ALBERT LEA     SUNNY     34   9  35 W3        30.09F
$$
MNZ078>079-086>088-094>096-152100-
   Southeast Minnesota

CITY           SKY/WX    TMP DP  RH WIND       PRES   REMARKS
ROCHESTER      SUNNY     32  14  47 W9        30.09S WCI  24
RED WING       SUNNY     36   3  25 W5        30.10S
STANTON        SUNNY     36   7  30 SW7       30.09F
DODGE CENTER   MOSUNNY   34   1  25 SW5       30.08F WCI  30
WINONA         SUNNY     36  12  38 NW10G18   30.12S
AUSTIN         SUNNY     32  10  40 CALM      30.09S
PRESTON        SUNNY     33  13  42 NW10      30.09F WCI  25
$$
ABBREVIATIONS USED IN REMARKS
   TC - TEMPERATURES IN CELSIUS
  WCI - WIND CHILL INDEX
   HX - HEAT INDEX
  VSB - VISIBILITY
$$


USA.gov is the U.S. government's official web portal to all federal, state and local government web resources and services.